This is the latest recevied weather packets stored in our database for station/object K7VLL. If no packets are shown the sender has not sent any weather packets the latest 10 day(s).
| Time | Temp. | Humidity | Pressure | Rain* | Wind** | Luminosity | Snow |
|---|---|---|---|---|---|---|---|
| 1778151267 | 11.67° C | 52% | 1091 hPa | 0 mm | - | 0 W/m² | - |
| 1778149463 | 12.22° C | 50% | 1091.3 hPa | 0 mm | - | 0 W/m² | - |
| 1778147661 | 12.78° C | 55% | 1091.3 hPa | 0 mm | - | 0 W/m² | - |
| 1778145861 | 13.33° C | 47% | 1091.5 hPa | 0 mm | - | 0 W/m² | - |
| 1778144058 | 13.33° C | 46% | 1091.3 hPa | 0 mm | - | 0 W/m² | - |
| 1778142255 | 12.78° C | 50% | 1091.6 hPa | 0 mm | - | 0 W/m² | - |
| 1778140451 | 13.33° C | 44% | 1091.5 hPa | 0 mm | - | 0 W/m² | - |
| 1778138650 | 13.89° C | 42% | 1091.5 hPa | 0 mm | - | 0 W/m² | - |
| 1778136850 | 14.44° C | 41% | 1091.5 hPa | 0 mm | - | 0 W/m² | - |
| 1778135045 | 15.56° C | 37% | 1091.6 hPa | 0 mm | - | 0 W/m² | - |
| 1778133244 | 16.11° C | 32% | 1091.5 hPa | 0 mm | - | 0 W/m² | - |
| 1778131440 | 17.78° C | 27% | 1091.3 hPa | 0 mm | - | 0 W/m² | - |
| 1778129639 | 20° C | 23% | 1091.3 hPa | 0 mm | - | 0 W/m² | - |
| 1778127836 | 21.11° C | 19% | 1090.9 hPa | 0 mm | - | 0 W/m² | - |
| 1778126031 | 20.56° C | 20% | 1091 hPa | 0 mm | - | 0 W/m² | - |
| 1778124231 | 20.56° C | 21% | 1090.9 hPa | 0 mm | - | 0 W/m² | - |
| 1778122429 | 21.67° C | 20% | 1090.1 hPa | 0 mm | - | 0 W/m² | - |
| 1778120627 | 22.22° C | 19% | 1090.1 hPa | 0 mm | - | 0 W/m² | - |
| 1778118826 | 23.33° C | 17% | 1089.9 hPa | 0 mm | - | 9 W/m² | - |
| 1778117023 | 25° C | 15% | 1089.9 hPa | 0 mm | - | 34 W/m² | - |
| 1778115219 | 25° C | 15% | 1089.8 hPa | 0 mm | - | 31 W/m² | - |
| 1778113415 | 26.67° C | 14% | 1089.7 hPa | 0 mm | - | 103 W/m² | - |
| 1778111612 | 27.78° C | 14% | 1089.7 hPa | 0 mm | - | 237 W/m² | - |
| 1778109810 | 27.78° C | 14% | 1089.7 hPa | 0 mm | - | 322 W/m² | - |
| 1778108010 | 27.78° C | 15% | 1090.1 hPa | 0 mm | - | 407 W/m² | - |
* Rain latest hour (hover to see other rain measurements)
** Current wind speed in m/s (hover to see current wind gust speed)